Weather History for Rionegro, Colombia

Change the Weather History Date:

Wednesday, February 12, 2014

  Actual Average Record
Temperature  
Mean Temperature 64 °F -  
Max Temperature 73 °F 69 °F 73 °F (1997)
Min Temperature 55 °F 54 °F 50 °F (2001)
Degree Days  
Heating Degree Days 1    
Growing Degree Days 14 (Base 50)    
Moisture  
Dew Point 55 °F    
Average Humidity 75    
Maximum Humidity 96    
Minimum Humidity 31    
Precipitation  
Precipitation 0.00 in - - ()
Sea Level Pressure  
Sea Level Pressure 30.23 in    
Wind  
Wind Speed 4 mph ()    
Max Wind Speed 14 mph    
Max Gust Speed -    
Visibility 5.7 miles    
Events Fog , Rain    
Averages and records for this station are not official NWS values.
T = Trace of Precipitation, MM = Missing Value Source: Averaged Metar Reports

Daily Weather History Graph

Daily Weather History Graph

Search for Another Location

Airport:

Trip Planner

Search our weather history database for the weather conditions in past years. The results will help you decide how hot, cold, wet, or windy it might be!

Date:

Astronomy

Feb. 12, 2014 Rise Set
Actual Time 6:18 AM COT 6:13 PM COT
Civil Twilight 5:57 AM COT 6:34 PM COT
Nautical Twilight 5:32 AM COT 6:59 PM COT
Astronomical Twilight 5:07 AM COT 7:24 PM COT
Moon 4:32 PM COT (2/12) 4:23 AM COT (2/12)
Length of Visible Light 12h 37m
Length of Day
11h 54m
Waxing Gibbous, 95% of the Moon is Illuminated
Feb 12
Waxing Gibbous
Feb 14
Full
Feb 22
Last Quarter
Mar 1
New
Mar 8
First Quarter

Hourly Weather History & Observations

Time (COT) Temp. Dew Point Humidity Pressure Visibility Wind Dir Wind Speed Gust Speed Precip Events Conditions
12:00 AM 59.0 °F 57.2 °F 94% 30.26 in 6.2 mi Calm Calm - N/A   Scattered Clouds
1:00 AM 57 °F 56 °F 96%  in 4 mi Calm Calm - -   Haze
1:00 AM 57.2 °F 55.4 °F 94% 30.27 in 4.3 mi Calm Calm - N/A   Scattered Clouds
2:00 AM 57.2 °F 55.4 °F 94% 30.25 in 3.7 mi Calm Calm - N/A   Scattered Clouds
3:00 AM 57.2 °F 55.4 °F 94% 30.22 in 3.1 mi Calm Calm - N/A   Haze
4:00 AM 59 °F 57 °F 91%  in 4 mi North 6.7 mph - -   Haze
4:00 AM 59.0 °F 57.2 °F 94% 30.22 in 3.7 mi North 5.8 mph - N/A   Mostly Cloudy
5:00 AM 59.0 °F 57.2 °F 94% 30.22 in 4.3 mi Variable 2.3 mph - N/A   Mostly Cloudy
5:30 AM 59.0 °F 57.2 °F 94% 30.22 in 4.3 mi NNE 4.6 mph - N/A   Light Drizzle
6:00 AM 59.0 °F 57.2 °F 94% 30.23 in 6.2 mi Calm Calm - N/A   Haze
7:00 AM 59 °F 58 °F 94%  in 2 mi North 4.5 mph - - Rain Light Drizzle
7:00 AM 59.0 °F 57.2 °F 94% 30.24 in 2.5 mi North 4.6 mph - N/A   Light Drizzle
8:00 AM 60.8 °F 57.2 °F 88% 30.27 in 3.7 mi North 5.8 mph - N/A Fog Fog
9:00 AM 62.6 °F 57.2 °F 82% 30.28 in 5.0 mi East 8.1 mph - N/A   Scattered Clouds
10:00 AM 65 °F 55 °F 62%  in 9 mi SE 8.9 mph - -   Haze
10:00 AM 66.2 °F 55.4 °F 68% 30.29 in 6.2 mi SE 8.1 mph - N/A   Scattered Clouds
11:00 AM 68.0 °F 53.6 °F 60% 30.27 in 6.2 mi South 10.4 mph - N/A   Scattered Clouds
12:00 PM 69.8 °F 51.8 °F 53% 30.25 in 6.2 mi SE 13.8 mph - N/A   Scattered Clouds
1:00 PM 72 °F 48 °F 31%  in 12 mi ESE 13.4 mph - -   Partly Cloudy
1:00 PM 71.6 °F 48.2 °F 43% 30.22 in 6.2 mi ESE 12.7 mph - N/A   Scattered Clouds
2:00 PM 71.6 °F 51.8 °F 50% 30.18 in 6.2 mi East 13.8 mph - N/A   Scattered Clouds
3:00 PM 71.6 °F 50.0 °F 46% 30.17 in 6.2 mi East 11.5 mph - N/A   Scattered Clouds
4:00 PM 73 °F 50 °F 33%  in 12 mi East 6.7 mph - -   Haze
4:00 PM 73.4 °F 50.0 °F 44% 30.15 in 6.2 mi East 6.9 mph - N/A   Scattered Clouds
5:00 PM 71.6 °F 48.2 °F 43% 30.15 in 6.2 mi NNE 9.2 mph - N/A   Scattered Clouds
6:00 PM 68.0 °F 51.8 °F 56% 30.16 in 6.2 mi East 9.2 mph - N/A   Mostly Cloudy
7:00 PM 65 °F 57 °F 68%  in 12 mi East 6.7 mph - -   Haze
7:00 PM 64.4 °F 57.2 °F 77% 30.19 in 6.2 mi East 6.9 mph - N/A   Scattered Clouds
8:00 PM 62.6 °F 59.0 °F 88% 30.21 in 6.2 mi NNE 4.6 mph - N/A   Scattered Clouds
9:00 PM 62.6 °F 59.0 °F 88% 30.24 in 6.2 mi NNE 4.6 mph - N/A   Scattered Clouds
10:00 PM 62 °F 59 °F 85%  in 5 mi Calm Calm - -   Haze
10:00 PM 60.8 °F 59.0 °F 94% 30.26 in 5.0 mi Calm Calm - N/A   Scattered Clouds
11:00 PM 60.8 °F 59.0 °F 94% 30.26 in 3.1 mi Calm Calm - N/A   Scattered Clouds